This is the latest recevied weather packets stored in our database for station/object VA2RBQ-7. If no packets are shown the sender has not sent any weather packets the latest 10 day(s).
| Time | Temp. | Humidity | Pressure | Rain* | Wind** | Luminosity | Snow |
|---|---|---|---|---|---|---|---|
| 1788038601 | 11.67° C | 62% | 1018.1 hPa | 0.76 mm | - | - | - |
| 1788038299 | 11.11° C | 62% | 1018 hPa | 0.76 mm | - | - | - |
| 1788037996 | 10.56° C | 62% | 1018 hPa | 0.76 mm | - | - | - |
| 1788037694 | 11.11° C | 62% | 1017.9 hPa | 0.76 mm | - | - | - |
| 1788037392 | 11.67° C | 62% | 1018 hPa | 1.27 mm | - | - | - |
| 1788037088 | 11.67° C | 62% | 1018.1 hPa | 1.52 mm | - | - | - |
| 1788036786 | 11.67° C | 62% | 1018.1 hPa | 1.52 mm | - | - | - |
| 1788036483 | 11.67° C | 62% | 1018 hPa | 1.78 mm | - | - | - |
| 1788036181 | 10° C | 62% | 1018.1 hPa | 1.78 mm | - | - | - |
| 1788035879 | 10.56° C | 63% | 1018 hPa | 1.78 mm | - | - | - |
| 1788035575 | 11.67° C | 63% | 1018 hPa | 1.78 mm | - | - | - |
| 1788035273 | 10.56° C | 63% | 1017.9 hPa | 1.78 mm | - | - | - |
| 1788034970 | 9.44° C | 63% | 1017.9 hPa | 1.78 mm | - | - | - |
| 1788034668 | 9.44° C | 63% | 1018 hPa | 1.78 mm | - | - | - |
| 1788034366 | 9.44° C | 64% | 1018 hPa | 2.03 mm | - | - | - |
| 1788034062 | 10.56° C | 64% | 1018 hPa | 2.03 mm | - | - | - |
| 1788033760 | 11.67° C | 64% | 1018.1 hPa | 2.03 mm | - | - | - |
| 1788033457 | 10.56° C | 65% | 1018 hPa | 2.03 mm | - | - | - |
| 1788033155 | 9.44° C | 65% | 1018.1 hPa | 2.03 mm | - | - | - |
| 1788032853 | 10° C | 66% | 1018.2 hPa | 2.03 mm | - | - | - |
| 1788032549 | 11.67° C | 66% | 1018.1 hPa | 2.03 mm | - | - | - |
| 1788032247 | 11.11° C | 66% | 1018.2 hPa | 2.03 mm | - | - | - |
| 1788031944 | 11.67° C | 66% | 1018.1 hPa | 2.03 mm | - | - | - |
| 1788031642 | 12.22° C | 66% | 1018.2 hPa | 3.05 mm | - | - | - |
| 1788031340 | 11.67° C | 66% | 1018.2 hPa | 7.87 mm | - | - | - |
* Rain since midnight (hover to see other rain measurements)
** Current wind speed in m/s (hover to see current wind gust speed)